Terug naar catalogus

SL-6 R/B(2)

ActiefHEO
NORAD 19810·ROCKET BODY·🇷🇺 Russia

Gelanceerd Feb 15, 1989 vanaf Baikonur Cosmodrome

Loading…

Volgende Passages (komende 24 uur)

TLE

VersSource: Space-Track

Epoch: Sep 8, 2026, 04:44 UTC

1 19810U 89014D   26251.19746479  .00000733  00000-0  00000-0 0  9997
2 19810  63.7023  28.1967 7217578 251.3943  23.3892  2.07385662284313

Volg SL-6 R/B(2) in realtime met AllMySat

Download on the App Store